FW7691 Weather Reports


Display with metric or nautical units.
time (UTC)temp
F
wind
direction
speed
MPH
gust
MPH
rain 1hr
in
rain 24hr
in
rain mn
in
humidity
%
barometer
mb
20260503175611 62 313 5.0 9.0 0.00 0.00 0.00 44 1012.1
20260503175108 61 281 3.0 6.0 0.00 0.00 0.00 47 1012.2
20260503174605 61 272 3.0 5.0 0.00 0.00 0.00 48 1012.2
20260503174102 61 4 5.0 8.0 0.00 0.00 0.00 48 1012.3
20260503173556 61 259 4.0 6.0 0.00 0.00 0.00 47 1012.5
20260503173053 61 328 4.0 7.0 0.00 0.00 0.00 46 1012.5
20260503172550 61 337 5.0 9.0 0.00 0.00 0.00 47 1012.5
20260503172048 60 303 3.0 5.0 0.00 0.00 0.00 47 1012.9
20260503171544 59 287 6.0 11.0 0.00 0.00 0.00 48 1012.7
20260503171042 60 275 2.0 3.0 0.00 0.00 0.00 47 1012.7
20260503170538 60 14 3.0 7.0 0.00 0.00 0.00 48 1012.7
20260503150930 52 251 3.0 5.0 0.00 0.00 0.00 54 1014.1
20260503150427 51 257 2.0 3.0 0.00 0.00 0.00 54 1014.1
20260503131320 51 288 4.0 5.0 0.00 0.00 0.00 55 1014.5
20260503130818 51 266 2.0 2.0 0.00 0.00 0.00 56 1014.3
20260503130315 50 258 2.0 3.0 0.00 0.00 0.00 56 1014.5
20260503110708 40 291 2.0 2.0 0.00 0.00 0.00 70 1014.3
20260503110206 40 265 1.0 1.0 0.00 0.00 0.00 70 1014.3
20260503100132 38 255 2.0 2.0 0.00 0.00 0.00 72 1014.2
20260503081521 35 289 0.0 0.0 0.00 0.00 0.00 74 1015.2
20260503081019 35 289 0.0 0.0 0.00 0.00 0.00 74 1015.1
20260503080515 35 289 0.0 0.0 0.00 0.00 0.00 75 1015.3
20260503072449 32 289 0.0 0.0 0.00 0.00 0.00 86 1015.3
20260503071945 32 289 0.0 0.0 0.00 0.00 0.00 87 1015.2
20260503071442 32 289 0.0 0.0 0.00 0.00 0.00 87 1015.3
20260503070938 32 289 0.0 0.0 0.00 0.00 0.00 87 1015.3
20260503070436 32 289 0.0 0.0 0.00 0.00 0.00 88 1015.5
20260503054849 32 289 0.0 0.0 0.00 0.00 0.00 83 1016.1
20260503054345 32 289 0.0 0.0 0.00 0.00 0.00 84 1016.2
20260503053843 32 289 0.0 0.0 0.00 0.00 0.00 84 1016.2
20260503053341 32 289 0.0 0.0 0.00 0.00 0.00 85 1016.3
20260503052837 32 289 0.0 0.0 0.00 0.00 0.00 86 1016.3
20260503052334 31 289 0.0 0.0 0.00 0.00 0.00 86 1016.2
20260503051830 31 289 0.0 0.0 0.00 0.00 0.00 87 1016.3
20260503051327 32 289 0.0 0.0 0.00 0.00 0.00 87 1016.4
20260503050824 32 289 0.0 0.0 0.00 0.00 0.00 87 1016.4
20260503050320 32 289 0.0 0.0 0.00 0.00 0.00 88 1016.3
20260503045818 32 289 0.0 0.0 0.00 0.00 0.00 87 1016.2
20260503045315 32 289 0.0 0.0 0.00 0.00 0.00 87 1016.5
20260503044811 32 289 0.0 0.0 0.00 0.00 0.00 87 1016.4
20260503044309 32 289 0.0 0.0 0.00 0.00 0.00 87 1016.5
20260503043806 33 289 0.0 0.0 0.00 0.00 0.00 87 1016.5
20260503043303 33 289 0.0 0.0 0.00 0.00 0.00 87 1016.4
20260503042758 32 289 0.0 0.0 0.00 0.00 0.00 85 1016.5
20260503042255 33 289 0.0 0.0 0.00 0.00 0.00 85 1016.4
20260503041751 33 289 0.0 0.0 0.00 0.00 0.00 84 1016.5
20260503041249 33 289 0.0 0.0 0.00 0.00 0.00 83 1016.6
20260503040747 33 289 0.0 0.0 0.00 0.00 0.00 81 1016.5
20260503040244 33 289 0.0 0.0 0.00 0.00 0.00 81 1016.6
20260503035741 33 289 0.0 0.0 0.00 0.00 0.00 80 1016.6
20260503035238 33 289 0.0 0.0 0.00 0.00 0.00 79 1016.6
20260503034735 33 289 0.0 0.0 0.00 0.00 0.00 79 1016.6
20260503034232 34 289 0.0 0.0 0.00 0.00 0.00 80 1016.7
20260503033730 34 289 0.0 0.0 0.00 0.00 0.00 80 1016.8
20260503033227 34 289 0.0 0.0 0.00 0.00 0.00 82 1016.8
20260503032725 34 289 0.0 0.0 0.00 0.00 0.00 82 1016.7
20260503032224 34 289 0.0 0.0 0.00 0.00 0.00 82 1016.7
20260503031720 35 289 0.0 0.0 0.00 0.00 0.00 83 1016.6
20260503031218 35 289 0.0 0.0 0.00 0.00 0.00 81 1016.9
20260503030714 35 289 0.0 0.0 0.00 0.00 0.00 81 1016.7
20260503030211 35 289 0.0 0.0 0.00 0.00 0.00 79 1016.6
20260503025708 35 289 0.0 0.0 0.00 0.00 0.00 78 1016.8
20260503025205 35 289 0.0 0.0 0.00 0.00 0.00 75 1016.8
20260503024701 35 289 0.0 0.0 0.00 0.00 0.00 73 1016.7
20260503024159 35 289 0.0 0.0 0.00 0.00 0.00 74 1016.8
20260503023656 36 289 0.0 0.0 0.00 0.00 0.00 69 1016.8
20260503023152 36 289 0.0 0.0 0.00 0.00 0.00 69 1016.9
20260503022649 37 289 0.0 0.0 0.00 0.00 0.00 68 1016.9
20260503022148 37 289 0.0 0.0 0.00 0.00 0.00 68 1017.0
20260503021645 37 289 0.0 0.0 0.00 0.00 0.00 67 1016.7
20260503021142 37 289 0.0 0.0 0.00 0.00 0.00 67 1016.9
20260503020639 37 289 0.0 0.0 0.00 0.00 0.00 64 1016.6
20260503020137 37 289 0.0 0.0 0.00 0.00 0.00 64 1016.7
20260503015633 38 289 0.0 0.0 0.00 0.00 0.00 66 1016.9
20260503015130 38 289 0.0 0.0 0.00 0.00 0.00 63 1016.9
20260503014626 38 289 0.0 0.0 0.00 0.00 0.00 62 1016.8
20260503014124 39 289 0.0 0.0 0.00 0.00 0.00 65 1016.8
20260503013621 39 289 0.0 0.0 0.00 0.00 0.00 66 1016.7
20260503013119 39 289 0.0 0.0 0.00 0.00 0.00 63 1016.6
20260503012616 39 289 0.0 0.0 0.00 0.00 0.00 62 1016.3
20260503012113 39 289 0.0 0.0 0.00 0.00 0.00 59 1016.4
20260503011609 40 289 0.0 0.0 0.00 0.00 0.00 60 1016.5
20260503011107 41 289 0.0 0.0 0.00 0.00 0.00 59 1016.4
20260503010602 41 289 0.0 0.0 0.00 0.00 0.00 56 1016.3
20260503010100 42 289 0.0 0.0 0.00 0.00 0.00 56 1016.5
20260503005557 43 289 0.0 0.0 0.00 0.00 0.00 55 1016.4
20260503005054 44 289 0.0 1.0 0.00 0.00 0.00 49 1016.4
20260503004550 44 264 0.0 1.0 0.00 0.00 0.00 48 1016.5
20260503004049 45 276 0.0 0.0 0.00 0.00 0.00 48 1016.4
20260503003545 45 281 0.0 0.0 0.00 0.00 0.00 46 1016.2
20260503003042 45 280 2.0 2.0 0.00 0.00 0.00 45 1016.3
20260503002539 46 286 2.0 2.0 0.00 0.00 0.00 45 1016.3
20260503002036 46 282 2.0 2.0 0.00 0.00 0.00 45 1016.2
20260503001532 46 296 2.0 2.0 0.00 0.00 0.00 44 1016.4
20260503001030 46 344 3.0 3.0 0.00 0.00 0.00 43 1016.2
20260503000527 47 305 2.0 3.0 0.00 0.00 0.00 43 1016.1
20260503000024 47 266 2.0 2.0 0.00 0.00 0.00 43 1016.3
20260502235520 47 309 3.0 5.0 0.00 0.00 0.00 42 1016.3
20260502235019 48 317 3.0 3.0 0.00 0.00 0.00 42 1016.3
20260502234514 48 346 7.0 8.0 0.00 0.00 0.00 42 1016.3
20260502234013 48 289 1.0 1.0 0.00 0.00 0.00 42 1016.3
20260502233512 48 295 0.0 0.0 0.00 0.00 0.00 43 1016.1
20260502233010 48 350 4.0 7.0 0.00 0.00 0.00 42 1016.1
20260502232506 48 325 3.0 3.0 0.00 0.00 0.00 42 1016.3
20260502232003 48 313 3.0 5.0 0.00 0.00 0.00 43 1016.4
20260502231500 48 272 1.0 2.0 0.00 0.00 0.00 43 1016.3
20260502230958 49 11 2.0 3.0 0.00 0.00 0.00 43 1016.4
20260502230456 51 313 3.0 3.0 0.00 0.00 0.00 40 1016.3
20260502225954 51 320 3.0 3.0 0.00 0.00 0.00 41 1016.4
20260502225449 53 296 2.0 3.0 0.00 0.00 0.00 41 1016.2
20260502224946 53 249 0.0 1.0 0.00 0.00 0.00 42 1016.2
20260502224443 53 68 1.0 1.0 0.00 0.00 0.00 40 1016.2
20260502223939 51 73 0.0 0.0 0.00 0.00 0.00 42 1016.2
20260502223437 51 0 3.0 6.0 0.00 0.00 0.00 41 1016.4
20260502222935 50 318 2.0 3.0 0.00 0.00 0.00 41 1016.4
20260502222433 48 293 2.0 2.0 0.00 0.00 0.00 46 1016.3
20260502221928 48 270 1.0 2.0 0.00 0.00 0.00 44 1016.4
20260502221425 48 354 2.0 3.0 0.00 0.00 0.00 45 1016.4
20260502220922 49 6 4.0 6.0 0.00 0.00 0.00 44 1016.4
20260502220418 48 274 3.0 3.0 0.00 0.00 0.00 45 1016.3
20260502215914 48 13 3.0 3.0 0.00 0.00 0.00 43 1016.3
20260502215412 48 45 2.0 2.0 0.00 0.00 0.00 44 1016.3
20260502214909 48 275 2.0 2.0 0.00 0.00 0.00 45 1016.3
20260502214405 49 301 6.0 8.0 0.00 0.00 0.00 43 1016.5
20260502213903 50 274 3.0 3.0 0.00 0.00 0.00 45 1016.6
20260502213359 50 255 0.0 2.0 0.00 0.00 0.00 45 1016.5
20260502212859 49 267 3.0 3.0 0.00 0.00 0.00 44 1016.3
20260502212356 48 311 2.0 3.0 0.00 0.00 0.00 46 1016.4
20260502211853 48 322 2.0 2.0 0.00 0.00 0.00 45 1016.5
20260502211349 48 6 3.0 3.0 0.00 0.00 0.00 43 1016.5
20260502210847 49 307 4.0 5.0 0.00 0.00 0.00 45 1016.4
20260502210343 50 334 3.0 3.0 0.00 0.00 0.00 46 1016.7
20260502205841 48 163 1.0 1.0 0.00 0.00 0.00 49 1016.6
20260502205337 48 67 4.0 5.0 0.00 0.00 0.00 46 1016.7
20260502204834 48 289 1.0 2.0 0.00 0.00 0.00 49 1016.6
20260502204331 48 57 1.0 1.0 0.00 0.00 0.00 45 1016.8
20260502203828 48 159 1.0 1.0 0.00 0.00 0.00 47 1016.6
20260502203326 47 330 1.0 1.0 0.00 0.00 0.00 50 1016.7
20260502202826 46 317 4.0 6.0 0.00 0.00 0.00 49 1016.9
20260502202324 47 328 2.0 2.0 0.00 0.00 0.00 50 1017.0
20260502201822 47 297 3.0 5.0 0.00 0.00 0.00 48 1016.9
20260502201318 47 319 3.0 3.0 0.00 0.00 0.00 47 1016.9
20260502200814 47 278 1.0 1.0 0.00 0.00 0.00 48 1017.3
20260502200310 47 56 2.0 2.0 0.00 0.00 0.00 47 1017.3
20260502195808 46 261 1.0 2.0 0.00 0.00 0.00 47 1017.4
20260502195305 47 330 5.0 7.0 0.00 0.00 0.00 47 1017.2
20260502194801 48 128 2.0 2.0 0.00 0.00 0.00 47 1017.3
20260502194258 48 153 1.0 2.0 0.00 0.00 0.00 47 1017.2
20260502193754 48 261 2.0 3.0 0.00 0.00 0.00 46 1017.3
20260502193252 48 3 6.0 7.0 0.00 0.00 0.00 44 1017.6
20260502192751 47 297 1.0 2.0 0.00 0.00 0.00 47 1017.6
20260502192249 48 58 3.0 3.0 0.00 0.00 0.00 48 1017.7
20260502191746 48 275 3.0 3.0 0.00 0.00 0.00 46 1017.4
20260502191244 48 319 1.0 2.0 0.00 0.00 0.00 48 1017.6
20260502190741 47 267 2.0 5.0 0.00 0.00 0.00 46 1017.7
20260502190239 46 324 5.0 5.0 0.00 0.00 0.00 47 1017.7
20260502185738 46 299 3.0 3.0 0.00 0.00 0.00 46 1018.1
20260502185235 46 92 4.0 6.0 0.00 0.00 0.00 46 1017.8
20260502184732 46 324 6.0 7.0 0.00 0.00 0.00 45 1017.8
20260502184227 47 258 6.0 8.0 0.00 0.00 0.00 43 1018.0
20260502183724 48 342 8.0 14.0 0.00 0.00 0.00 45 1017.7
20260502183220 47 357 1.0 1.0 0.00 0.00 0.00 47 1018.0
20260502182716 47 284 4.0 6.0 0.00 0.00 0.00 45 1018.1
20260502182211 49 316 4.0 8.0 0.00 0.00 0.00 43 1018.0
20260502181709 48 283 1.0 2.0 0.00 0.00 0.00 45 1018.1
20260502181208 47 274 1.0 2.0 0.00 0.00 0.00 46 1018.1
20260502180704 46 266 3.0 3.0 0.00 0.00 0.00 44 1018.1
20260502180202 49 232 5.0 6.0 0.00 0.00 0.00 43 1018.1